Zurück zum Katalog

SPACEMOBILE-SSR02 DEB

AktivVLEO
NORAD 62370·DEBRIS·🇺🇸 United States

Gestartet Sep 12, 2024 von Cape Canaveral Space Force Station

Loading…

Nächste Überflüge (nächste 24 Stunden)

TLE

AktuellSource: Space-Track

Epoche: Sep 14, 2026, 13:11 UTC

1 62370U 24163G   26257.54977871  .00019359  00000-0  39847-3 0  9995
2 62370  52.9412 198.7657 0008444 108.5662 251.6260 15.45950447112172

Verfolge SPACEMOBILE-SSR02 DEB in Echtzeit mit AllMySat

Download on the App Store